Location: Arbon
(43.0005°N, 0.7472°E)
Time: 01:31:15
(UTC+00:00)

Cosmos 1072 Rocket - Pass Details

Date: 07 August 2020
Orbit: 949 x 1008 km, 82.9° (Epoch: 19 September)

Event Time Altitude Azimuth Distance (km) Brightness Sun altitude
Exits shadow 00:39:11 75° 302° (WNW) 989 4.4 -30.1°
Drops below altitude 10° 00:45:05 10° 5° (N) 2,683 7.7 -29.9°
Sets 00:47:36 0° 7° (N) 3,632 8.7 -29.8°
